Find XM-3

NORAD ID: 28626 Int'l Des: 2005-008 Owner: XMR Country: US operational
HEOCIRCULAR

リアルタイム位置

3D地球を読み込み中...

XM-3について

説明を読み込み中...

次回通過

Passes for default location (London). Set your location on the main map for personalized predictions.

高度履歴

Loading altitude history...

軌道要素

1 28626U 05008A 26107.20087263 .00000074 00000-0 00000-0 0 9992
2 28626 0.5005 83.5806 0006805 319.0718 113.9160 0.98954010 41994
Epoch: Apr 17, 2026 • Age: 12 hours

現在のステータス

高度 36151.8 km
速度 3.06 km/s
衛星直下点 -0.43°S, 123.45°W
打ち上げ日 Mar 1, 2005
運用期間 21.1 years
タイプ other

技術仕様

分類 Payload
質量 4682.00 kg
乾燥質量 2500.00 kg
総質量 4682.00 kg
長さ 7.00 m
直径 3.30 m
スパン 40.40 m
形状 Box + 2 Pan
製造者 BOES
バスタイプ BSS-702HP
フェーズステータス In Orbit
所有者/国 XMR/US

Most Searched